Orbital Elements at Epoch 2456168.5 (2012-Aug-29.0) TDB
Reference: JPL 21 (heliocentric ecliptic J2000)
Element | Value | Uncertainty (1-sigma) | Units |
e | .5162767506201973 | 8.7069e-08 | |
a | 5.023194232742737 | 5.3861e-08 | au |
q | 2.429835836528202 | 4.531e-07 | au |
i | 17.90658999121265 | 6.0293e-06 | deg |
node | 69.6004814479782 | 1.9748e-05 | deg |
peri | 66.94310547389308 | 1.8836e-05 | deg |
M | 223.3016232316671 | 6.3916e-06 | deg |
tp | 2457729.954166209080 (2016-Dec-07.45416621) | 5.3369e-05 | TDB |
period | 4112.14465836648 11.26 | 6.6138e-05 1.811e-07 | d yr |
n | .08754555831773861 | 1.4081e-09 | deg/d |
Q | 7.616552628957272 | 8.1668e-08 | au |
|
| | Orbit Determination Parameters
Additional Information
|